| time (UTC) | temp C | wind direction | speed KPH | gust KPH | rain 1hr cm | rain 24hr cm | rain mn cm | humidity % | barometer mb |
| 20260506124006 | 10 | 42 | 0.0 | 9.7 | 0.00 | 0.00 | 0.00 | 59 | 1015.1 |
| 20260506123505 | 10 | 6 | 3.2 | 9.7 | 0.00 | 0.00 | 0.00 | 56 | 1015.3 |
| 20260506123007 | 10 | 111 | 1.6 | 8.0 | 0.00 | 0.00 | 0.00 | 58 | 1015.3 |
| 20260506122503 | 10 | 39 | 1.6 | 9.7 | 0.00 | 0.00 | 0.00 | 58 | 1015.2 |
| 20260506122002 | 10 | 56 | 3.2 | 9.7 | 0.00 | 0.00 | 0.00 | 56 | 1015.2 |
| 20260506121502 | 10 | 122 | 3.2 | 9.7 | 0.00 | 0.00 | 0.00 | 58 | 1015.2 |
| 20260506120504 | 9 | 8 | 3.2 | 9.7 | 0.00 | 0.00 | 0.00 | 56 | 1015.2 |
| 20260506120011 | 9 | 84 | 1.6 | 9.7 | 0.00 | 0.00 | 0.00 | 56 | 1015.2 |
| 20260506115503 | 9 | 4 | 3.2 | 9.7 | 0.00 | 0.00 | 0.00 | 55 | 1015.4 |
| 20260506115003 | 9 | 347 | 1.6 | 11.3 | 0.00 | 0.00 | 0.00 | 55 | 1015.3 |
| 20260506114508 | 10 | 2 | 4.8 | 11.3 | 0.00 | 0.00 | 0.00 | 53 | 1015.3 |
| 20260506114005 | 10 | 346 | 1.6 | 6.4 | 0.00 | 0.00 | 0.00 | 54 | 1015.2 |
| 20260506113506 | 10 | 89 | 3.2 | 9.7 | 0.00 | 0.00 | 0.00 | 54 | 1015.3 |
| 20260506113014 | 10 | 251 | 1.6 | 17.7 | 0.00 | 0.00 | 0.00 | 54 | 1015.3 |
| 20260506112504 | 10 | 354 | 3.2 | 30.6 | 0.00 | 0.00 | 0.00 | 51 | 1015.3 |
| 20260506112006 | 11 | 45 | 4.8 | 30.6 | 0.00 | 0.00 | 0.00 | 49 | 1015.2 |
| 20260506111526 | 11 | 195 | 1.6 | 6.4 | 0.00 | 0.00 | 0.00 | 44 | 1015.2 |
| 20260506111003 | 11 | 167 | 1.6 | 4.8 | 0.00 | 0.00 | 0.00 | 44 | 1015.2 |
| 20260506110503 | 10 | 255 | 1.6 | 9.7 | 0.00 | 0.00 | 0.00 | 50 | 1015.2 |
| 20260506110004 | 10 | 259 | 1.6 | 9.7 | 0.00 | 0.00 | 0.00 | 46 | 1015.3 |
| 20260506105503 | 11 | 218 | 3.2 | 8.0 | 0.00 | 0.00 | 0.00 | 46 | 1015.3 |
| 20260506105006 | 11 | 198 | 3.2 | 8.0 | 0.00 | 0.00 | 0.00 | 46 | 1015.3 |
| 20260506104507 | 11 | 230 | 0.0 | 6.4 | 0.00 | 0.00 | 0.00 | 50 | 1015.3 |
| 20260506104005 | 11 | 323 | 3.2 | 6.4 | 0.00 | 0.00 | 0.00 | 48 | 1015.2 |
| 20260506103503 | 11 | 212 | 1.6 | 6.4 | 0.00 | 0.00 | 0.00 | 50 | 1015.2 |
| 20260506103011 | 10 | 231 | 3.2 | 8.0 | 0.00 | 0.00 | 0.00 | 51 | 1015.3 |
| 20260506102503 | 10 | 229 | 3.2 | 9.7 | 0.00 | 0.00 | 0.00 | 53 | 1015.3 |
| 20260506101517 | 10 | 200 | 0.0 | 8.0 | 0.00 | 0.00 | 0.00 | 58 | 1015.4 |
| 20260506101006 | 10 | 204 | 3.2 | 8.0 | 0.00 | 0.00 | 0.00 | 58 | 1015.4 |
| 20260506100507 | 9 | 205 | 3.2 | 8.0 | 0.00 | 0.00 | 0.00 | 56 | 1015.5 |
| 20260506100018 | 9 | 210 | 1.6 | 8.0 | 0.00 | 0.00 | 0.00 | 59 | 1015.6 |
| 20260506095503 | 9 | 255 | 3.2 | 8.0 | 0.00 | 0.00 | 0.00 | 58 | 1015.7 |
| 20260506095004 | 8 | 99 | 0.0 | 8.0 | 0.00 | 0.00 | 0.00 | 62 | 1015.7 |
| 20260506094506 | 8 | 205 | 1.6 | 8.0 | 0.00 | 0.00 | 0.00 | 62 | 1015.7 |
| 20260506094003 | 8 | 35 | 3.2 | 6.4 | 0.00 | 0.00 | 0.00 | 60 | 1015.8 |
| 20260506093502 | 8 | 301 | 3.2 | 4.8 | 0.00 | 0.00 | 0.00 | 62 | 1015.9 |
| 20260506093006 | 8 | 52 | 0.0 | 6.4 | 0.00 | 0.00 | 0.00 | 62 | 1015.9 |
| 20260506092504 | 7 | 24 | 3.2 | 6.4 | 0.00 | 0.00 | 0.00 | 60 | 1016.0 |
| 20260506092007 | 8 | 6 | 1.6 | 4.8 | 0.00 | 0.00 | 0.00 | 61 | 1016.0 |
| 20260506091514 | 8 | 196 | 3.2 | 4.8 | 0.00 | 0.00 | 0.00 | 60 | 1016.0 |
| 20260506091010 | 7 | 224 | 1.6 | 4.8 | 0.00 | 0.00 | 0.00 | 61 | 1016.1 |
| 20260506090506 | 7 | 261 | 0.0 | 6.4 | 0.00 | 0.00 | 0.00 | 63 | 1016.2 |
| 20260506090017 | 7 | 197 | 3.2 | 6.4 | 0.00 | 0.00 | 0.00 | 61 | 1016.2 |
| 20260506085505 | 7 | 281 | 0.0 | 4.8 | 0.00 | 0.00 | 0.00 | 63 | 1016.3 |
| 20260506085006 | 7 | 268 | 1.6 | 8.0 | 0.00 | 0.00 | 0.00 | 63 | 1016.3 |
| 20260506084533 | 7 | 198 | 1.6 | 8.0 | 0.00 | 0.00 | 0.00 | 62 | 1016.4 |
| 20260506084010 | 7 | 239 | 1.6 | 4.8 | 0.00 | 0.00 | 0.00 | 63 | 1016.4 |
| 20260506083504 | 7 | 245 | 1.6 | 4.8 | 0.00 | 0.00 | 0.00 | 63 | 1016.4 |
| 20260506083015 | 7 | 255 | 0.0 | 8.0 | 0.00 | 0.00 | 0.00 | 64 | 1016.4 |
| 20260506082505 | 7 | 268 | 0.0 | 8.0 | 0.00 | 0.00 | 0.00 | 63 | 1016.5 |
| 20260506082003 | 7 | 283 | 1.6 | 4.8 | 0.00 | 0.00 | 0.00 | 63 | 1016.4 |
| 20260506081506 | 6 | 258 | 1.6 | 6.4 | 0.00 | 0.00 | 0.00 | 64 | 1016.5 |
| 20260506081011 | 6 | 239 | 3.2 | 6.4 | 0.00 | 0.00 | 0.00 | 64 | 1016.5 |
| 20260506080506 | 6 | 214 | 1.6 | 6.4 | 0.00 | 0.00 | 0.00 | 64 | 1016.5 |
| 20260506073509 | 6 | 249 | 1.6 | 6.4 | 0.00 | 0.00 | 0.00 | 67 | 1016.6 |
| 20260506073023 | 6 | 210 | 1.6 | 6.4 | 0.00 | 0.00 | 0.00 | 69 | 1016.6 |
| 20260506072507 | 6 | 244 | 4.8 | 6.4 | 0.00 | 0.00 | 0.00 | 69 | 1016.6 |
| 20260506072010 | 6 | 250 | 1.6 | 4.8 | 0.00 | 0.00 | 0.00 | 70 | 1016.7 |
| 20260506071506 | 5 | 245 | 1.6 | 3.2 | 0.00 | 0.00 | 0.00 | 72 | 1016.6 |
| 20260506070504 | 5 | 210 | 0.0 | 3.2 | 0.00 | 0.00 | 0.00 | 73 | 1016.6 |
| 20260506062513 | 2 | 8 | 0.0 | 0.0 | 0.00 | 0.00 | 0.00 | 85 | 1016.6 |
| 20260506061010 | 2 | 7 | 0.0 | 1.6 | 0.00 | 0.00 | 0.00 | 88 | 1016.5 |
| 20260506060509 | 2 | 7 | 0.0 | 1.6 | 0.00 | 0.00 | 0.00 | 89 | 1016.5 |
| 20260506050502 | 0 | 53 | 0.0 | 0.0 | 0.00 | 0.00 | 0.00 | 92 | 1016.8 |
| 20260506045002 | 0 | 54 | 0.0 | 1.6 | 0.00 | 0.00 | 0.00 | 92 | 1017.0 |
| 20260506044514 | 0 | 54 | 0.0 | 1.6 | 0.00 | 0.00 | 0.00 | 92 | 1017.1 |
| 20260506044003 | -1 | 274 | 0.0 | 0.0 | 0.00 | 0.03 | 0.00 | 92 | 1017.1 |
| 20260506043503 | -1 | 274 | 0.0 | 0.0 | 0.00 | 0.03 | 0.00 | 92 | 1017.0 |
| 20260506043015 | -1 | 274 | 0.0 | 0.0 | 0.00 | 0.03 | 0.00 | 92 | 1017.0 |
| 20260506040503 | -1 | 274 | 0.0 | 0.0 | 0.00 | 0.03 | 0.00 | 92 | 1016.9 |
| 20260506034004 | -1 | 274 | 0.0 | 0.0 | 0.00 | 0.03 | 0.00 | 91 | 1017.2 |
| 20260506033503 | -2 | 274 | 0.0 | 0.0 | 0.00 | 0.03 | 0.00 | 91 | 1017.3 |
| 20260506033007 | -2 | 274 | 0.0 | 0.0 | 0.00 | 0.03 | 0.00 | 91 | 1017.3 |
| 20260506030021 | -1 | 274 | 0.0 | 0.0 | 0.00 | 0.03 | 0.00 | 90 | 1017.3 |
| 20260506014522 | -1 | 274 | 0.0 | 0.0 | 0.00 | 0.03 | 0.00 | 89 | 1017.5 |
| 20260506014006 | -1 | 274 | 0.0 | 0.0 | 0.00 | 0.05 | 0.00 | 90 | 1017.5 |
| 20260506011518 | 0 | 245 | 0.0 | 0.0 | 0.00 | 0.05 | 0.00 | 89 | 1017.4 |
| 20260506004006 | 0 | 245 | 0.0 | 0.0 | 0.00 | 0.05 | 0.00 | 89 | 1017.7 |
| 20260506001521 | 0 | 245 | 0.0 | 0.0 | 0.00 | 0.08 | 0.00 | 88 | 1017.8 |
| 20260506001007 | 0 | 245 | 0.0 | 0.0 | 0.00 | 0.08 | 0.00 | 88 | 1017.9 |
| 20260506000504 | 0 | 245 | 0.0 | 0.0 | 0.00 | 0.08 | 0.00 | 87 | 1017.8 |
| 20260506000007 | 0 | 245 | 0.0 | 0.0 | 0.00 | 0.08 | 0.00 | 87 | 1017.9 |
| 20260505233503 | 0 | 245 | 0.0 | 0.0 | 0.00 | 0.08 | 0.00 | 87 | 1018.0 |
| 20260505230005 | 1 | 191 | 0.0 | 0.0 | 0.00 | 0.08 | 0.00 | 86 | 1018.3 |
| 20260505223504 | 1 | 186 | 0.0 | 1.6 | 0.00 | 0.08 | 0.08 | 86 | 1018.3 |
| 20260505223003 | 2 | 186 | 0.0 | 1.6 | 0.00 | 0.08 | 0.08 | 86 | 1018.3 |
| 20260505220502 | 2 | 184 | 0.0 | 0.0 | 0.00 | 0.08 | 0.08 | 85 | 1018.4 |
| 20260505220008 | 2 | 184 | 0.0 | 0.0 | 0.00 | 0.08 | 0.08 | 84 | 1018.4 |
| 20260505215503 | 2 | 184 | 0.0 | 0.0 | 0.00 | 0.08 | 0.08 | 84 | 1018.4 |
| 20260505215003 | 2 | 184 | 0.0 | 0.0 | 0.00 | 0.08 | 0.08 | 84 | 1018.5 |
| 20260505214503 | 2 | 184 | 0.0 | 0.0 | 0.00 | 0.08 | 0.08 | 84 | 1018.5 |
| 20260505214003 | 2 | 58 | 0.0 | 1.6 | 0.00 | 0.08 | 0.08 | 83 | 1018.5 |
| 20260505213503 | 2 | 58 | 0.0 | 1.6 | 0.00 | 0.08 | 0.08 | 82 | 1018.5 |
| 20260505213003 | 2 | 58 | 0.0 | 0.0 | 0.00 | 0.08 | 0.08 | 82 | 1018.5 |
| 20260505212503 | 2 | 58 | 0.0 | 1.6 | 0.00 | 0.08 | 0.08 | 82 | 1018.4 |
| 20260505212003 | 3 | 57 | 0.0 | 1.6 | 0.00 | 0.08 | 0.08 | 81 | 1018.4 |
| 20260505211503 | 3 | 57 | 0.0 | 0.0 | 0.00 | 0.08 | 0.08 | 80 | 1018.4 |
| 20260505211003 | 3 | 57 | 0.0 | 1.6 | 0.00 | 0.08 | 0.08 | 80 | 1018.5 |
| 20260505210502 | 3 | 57 | 0.0 | 1.6 | 0.00 | 0.08 | 0.08 | 79 | 1018.4 |
| 20260505210004 | 3 | 61 | 0.0 | 1.6 | 0.00 | 0.08 | 0.08 | 79 | 1018.5 |
| 20260505205506 | 3 | 131 | 0.0 | 1.6 | 0.00 | 0.08 | 0.08 | 78 | 1018.5 |
| 20260505205004 | 4 | 136 | 0.0 | 4.8 | 0.00 | 0.08 | 0.08 | 78 | 1018.4 |
| 20260505204506 | 4 | 6 | 0.0 | 6.4 | 0.00 | 0.08 | 0.08 | 77 | 1018.5 |
| 20260505204003 | 4 | 27 | 0.0 | 6.4 | 0.00 | 0.08 | 0.08 | 76 | 1018.5 |
| 20260505203502 | 5 | 65 | 1.6 | 4.8 | 0.00 | 0.08 | 0.08 | 75 | 1018.4 |
| 20260505203004 | 5 | 132 | 0.0 | 4.8 | 0.00 | 0.08 | 0.08 | 74 | 1018.5 |
| 20260505202504 | 5 | 11 | 0.0 | 4.8 | 0.00 | 0.10 | 0.08 | 74 | 1018.5 |
| 20260505202004 | 5 | 39 | 0.0 | 1.6 | 0.00 | 0.10 | 0.08 | 72 | 1018.4 |
| 20260505201504 | 5 | 124 | 0.0 | 0.0 | 0.00 | 0.13 | 0.08 | 71 | 1018.3 |
| 20260505201003 | 5 | 124 | 0.0 | 1.6 | 0.00 | 0.13 | 0.08 | 71 | 1018.4 |
| 20260505200503 | 5 | 124 | 0.0 | 1.6 | 0.00 | 0.13 | 0.08 | 70 | 1018.5 |
| 20260505200008 | 5 | 124 | 0.0 | 1.6 | 0.00 | 0.13 | 0.08 | 70 | 1018.6 |
| 20260505195503 | 5 | 124 | 0.0 | 1.6 | 0.00 | 0.13 | 0.08 | 70 | 1018.5 |
| 20260505195003 | 6 | 123 | 0.0 | 1.6 | 0.00 | 0.15 | 0.08 | 70 | 1018.5 |
| 20260505194505 | 6 | 73 | 0.0 | 1.6 | 0.00 | 0.18 | 0.08 | 69 | 1018.5 |
| 20260505194004 | 6 | 354 | 0.0 | 1.6 | 0.00 | 0.18 | 0.08 | 69 | 1018.5 |
| 20260505193503 | 6 | 354 | 0.0 | 1.6 | 0.00 | 0.18 | 0.08 | 69 | 1018.4 |
| 20260505193004 | 6 | 108 | 0.0 | 1.6 | 0.00 | 0.18 | 0.08 | 68 | 1018.3 |
| 20260505192501 | 6 | 106 | 0.0 | 1.6 | 0.00 | 0.18 | 0.08 | 67 | 1018.3 |
| 20260505192002 | 6 | 118 | 0.0 | 1.6 | 0.00 | 0.18 | 0.08 | 67 | 1018.3 |
| 20260505191521 | 6 | 124 | 0.0 | 1.6 | 0.00 | 0.18 | 0.08 | 66 | 1018.3 |
| 20260505191003 | 6 | 20 | 0.0 | 1.6 | 0.00 | 0.18 | 0.08 | 65 | 1018.2 |
| 20260505190504 | 6 | 340 | 0.0 | 1.6 | 0.00 | 0.18 | 0.08 | 64 | 1018.3 |
| 20260505190008 | 6 | 103 | 0.0 | 1.6 | 0.00 | 0.18 | 0.08 | 65 | 1018.2 |
| 20260505185503 | 7 | 9 | 0.0 | 1.6 | 0.00 | 0.18 | 0.08 | 65 | 1018.2 |
| 20260505185004 | 7 | 10 | 0.0 | 1.6 | 0.00 | 0.18 | 0.08 | 66 | 1018.2 |
| 20260505184508 | 7 | 9 | 0.0 | 3.2 | 0.00 | 0.18 | 0.08 | 65 | 1018.2 |
| 20260505184002 | 7 | 145 | 0.0 | 3.2 | 0.00 | 0.18 | 0.08 | 66 | 1018.2 |
| 20260505183503 | 7 | 12 | 0.0 | 4.8 | 0.00 | 0.18 | 0.08 | 65 | 1018.3 |
| 20260505183008 | 7 | 134 | 0.0 | 6.4 | 0.00 | 0.23 | 0.08 | 65 | 1018.3 |
| 20260505182503 | 7 | 108 | 1.6 | 6.4 | 0.00 | 0.28 | 0.08 | 63 | 1018.4 |
| 20260505182003 | 7 | 302 | 0.0 | 8.0 | 0.00 | 0.28 | 0.08 | 63 | 1018.5 |
| 20260505181506 | 7 | 122 | 0.0 | 8.0 | 0.00 | 0.28 | 0.08 | 63 | 1018.5 |
| 20260505181004 | 7 | 246 | 0.0 | 4.8 | 0.00 | 0.28 | 0.08 | 60 | 1018.5 |
| 20260505180502 | 7 | 67 | 1.6 | 4.8 | 0.00 | 0.28 | 0.08 | 60 | 1018.5 |
| 20260505180008 | 7 | 7 | 1.6 | 6.4 | 0.00 | 0.28 | 0.08 | 57 | 1018.6 |
| 20260505175504 | 7 | 136 | 1.6 | 6.4 | 0.00 | 0.28 | 0.08 | 56 | 1018.5 |
| 20260505175004 | 7 | 57 | 1.6 | 6.4 | 0.00 | 0.28 | 0.08 | 55 | 1018.4 |
| 20260505174005 | 7 | 25 | 1.6 | 6.4 | 0.00 | 0.28 | 0.08 | 55 | 1018.2 |
| 20260505173506 | 7 | 18 | 0.0 | 6.4 | 0.00 | 0.28 | 0.08 | 56 | 1018.3 |
| 20260505173011 | 7 | 34 | 1.6 | 6.4 | 0.00 | 0.28 | 0.08 | 55 | 1018.3 |
| 20260505172502 | 7 | 166 | 1.6 | 6.4 | 0.00 | 0.28 | 0.08 | 56 | 1018.2 |
| 20260505172002 | 8 | 14 | 4.8 | 6.4 | 0.00 | 0.28 | 0.08 | 53 | 1018.2 |
| 20260505171003 | 8 | 86 | 1.6 | 4.8 | 0.00 | 0.28 | 0.08 | 55 | 1018.1 |
| 20260505170505 | 8 | 343 | 0.0 | 6.4 | 0.00 | 0.28 | 0.08 | 54 | 1018.2 |
| 20260505170004 | 8 | 346 | 1.6 | 6.4 | 0.00 | 0.28 | 0.08 | 52 | 1018.2 |
| 20260505165503 | 8 | 64 | 1.6 | 6.4 | 0.00 | 0.28 | 0.08 | 52 | 1018.2 |
| 20260505165004 | 8 | 130 | 0.0 | 9.7 | 0.00 | 0.28 | 0.08 | 53 | 1018.2 |
| 20260505164504 | 8 | 271 | 1.6 | 9.7 | 0.00 | 0.28 | 0.08 | 50 | 1018.2 |
| 20260505164003 | 9 | 344 | 4.8 | 9.7 | 0.00 | 0.28 | 0.08 | 48 | 1018.1 |
| 20260505163503 | 9 | 314 | 1.6 | 8.0 | 0.00 | 0.28 | 0.08 | 51 | 1018.1 |
| 20260505163009 | 8 | 125 | 1.6 | 8.0 | 0.00 | 0.28 | 0.08 | 52 | 1018.1 |
| 20260505162503 | 8 | 42 | 1.6 | 9.7 | 0.00 | 0.28 | 0.08 | 53 | 1018.2 |
| 20260505162004 | 8 | 84 | 3.2 | 9.7 | 0.00 | 0.28 | 0.08 | 51 | 1018.2 |
| 20260505161504 | 8 | 23 | 0.0 | 6.4 | 0.00 | 0.28 | 0.08 | 50 | 1018.1 |
| 20260505161003 | 8 | 347 | 1.6 | 9.7 | 0.00 | 0.28 | 0.08 | 49 | 1018.0 |
| 20260505160505 | 8 | 333 | 3.2 | 11.3 | 0.00 | 0.28 | 0.08 | 47 | 1018.0 |
| 20260505153013 | 8 | 344 | 4.8 | 9.7 | 0.00 | 0.28 | 0.08 | 44 | 1018.1 |
| 20260505152505 | 9 | 355 | 3.2 | 9.7 | 0.00 | 0.28 | 0.08 | 43 | 1018.1 |
| 20260505152002 | 10 | 6 | 6.4 | 11.3 | 0.00 | 0.28 | 0.08 | 42 | 1018.2 |
| 20260505151512 | 9 | 75 | 4.8 | 11.3 | 0.00 | 0.28 | 0.08 | 45 | 1018.2 |
| 20260505151006 | 10 | 166 | 3.2 | 8.0 | 0.00 | 0.28 | 0.08 | 42 | 1018.2 |
| 20260505150506 | 9 | 345 | 1.6 | 9.7 | 0.00 | 0.28 | 0.08 | 45 | 1018.1 |
| 20260505140505 | 8 | 344 | 0.0 | 12.9 | 0.00 | 0.28 | 0.08 | 54 | 1018.0 |
| 20260505125008 | 7 | 324 | 1.6 | 12.9 | 0.00 | 0.28 | 0.08 | 63 | 1018.0 |
| 20260505124517 | 7 | 93 | 4.8 | 12.9 | 0.00 | 0.28 | 0.08 | 59 | 1018.0 |